Location: UFOWorks Observatory
(42.1050°N, 72.2350°W)
Time: 19:08:34
(UTC-05:00)

ISS - Visible Passes

Search period start: 03 March 2015 00:00
Search period end: 13 March 2015 01:00
Orbit: 396 x 409 km, 51.6° (Epoch: 03 March)

Date Brightness Start Highest point End Pass type
(mag) Time Alt. Az. Time Alt. Az. Time Alt. Az.
07 Mar 0.2 05:41:04 10° SE 05:41:13 10° SE 05:41:31 10° SE visible
09 Mar -1.0 06:27:03 10° S 06:29:36 22° SE 06:32:13 10° E visible
10 Mar -0.3 05:34:33 10° SSE 05:35:36 11° SE 05:36:46 10° ESE visible
11 Mar -2.5 06:14:02 10° SW 06:17:09 48° SE 06:20:18 10° ENE visible
12 Mar -1.4 05:21:42 21° SSE 05:22:38 24° SE 05:25:20 10° E visible
